WA9AFM Weather Reports


time (UTC)temp
C
wind
direction
speed
KPH
gust
KPH
rain 1hr
cm
rain 24hr
cm
rain mn
cm
humidity
%
barometer
mb
20260510033329 23 248 8.0 16.1 0.00 0.05 0.05 56 1005.5
20260510032656 23 213 1.6 0.0 0.00 0.00 0.00 56 1003.7
20260510031827 23 279 9.7 19.3 0.00 0.05 0.05 56 1005.3
20260510030331 23 228 6.4 19.3 0.00 0.05 0.05 57 1004.5
20260510025655 23 320 1.6 0.0 0.00 0.00 0.00 55 1003.6
20260510024828 23 7 0.0 9.7 0.00 0.05 0.05 55 1006.0
20260510023347 24 253 0.0 4.8 0.00 0.05 0.05 53 1005.9
20260510022656 24 258 0.0 0.0 0.00 0.00 0.00 52 1004.0
20260510021817 24 322 1.6 8.0 0.00 0.05 0.05 52 1005.4
20260510020341 24 270 0.0 3.2 0.00 0.05 0.05 52 1004.7
20260510015656 24 329 0.0 0.0 0.00 0.00 0.00 52 1003.1
20260510014819 25 332 0.0 1.6 0.00 0.05 0.05 52 1004.4
20260510013319 25 278 0.0 3.2 0.00 0.05 0.05 50 1003.9
20260510012657 25 289 0.0 0.0 0.00 0.00 0.00 50 1002.4
20260510011839 25 303 0.0 3.2 0.00 0.05 0.05 49 1003.9
20260510010318 26 180 0.0 1.6 0.00 0.05 0.05 47 1003.9
20260510005656 26 296 0.0 0.0 0.00 0.00 0.00 46 1002.4
20260510004818 26 341 0.0 3.2 0.00 0.05 0.05 45 1003.9
20260510003332 26 300 1.6 4.8 0.00 0.05 0.05 44 1003.7
20260510002657 26 320 0.0 0.0 0.00 0.00 0.00 43 1002.3
20260510001814 26 314 0.0 8.0 0.00 0.05 0.05 43 1003.9
20260510000313 27 334 1.6 6.4 0.00 0.05 0.05 41 1003.8
20260509235655 27 260 1.6 0.0 0.00 0.00 0.00 41 1002.5
20260509234833 28 343 1.6 9.7 0.00 0.76 0.05 40 1004.0
20260509233312 28 58 3.2 9.7 0.00 0.76 0.05 41 1004.0
20260509232656 28 335 4.8 0.0 0.00 0.00 0.00 41 1002.6
20260509231851 29 322 3.2 17.7 0.00 0.76 0.05 43 1004.0
20260509231155 29 330 1.6 0.0 0.00 0.00 0.00 42 1002.6
20260509230341 30 317 3.2 8.0 0.00 0.76 0.05 40 1004.3
20260509225656 30 49 1.6 0.0 0.00 0.00 0.00 41 1003.0
20260509224820 30 340 4.8 12.9 0.00 0.76 0.05 39 1004.6
20260509223321 30 324 1.6 11.3 0.00 0.76 0.05 41 1004.7
20260509222657 30 314 8.0 0.0 0.00 0.00 0.00 40 1003.3
20260509221817 30 305 0.0 12.9 0.00 0.76 0.05 39 1004.7
20260509221156 30 324 4.8 0.0 0.00 0.00 0.00 39 1003.3
20260509220317 31 311 3.2 9.7 0.00 0.76 0.05 40 1004.7
20260509215655 31 327 0.0 0.0 0.00 0.00 0.00 41 1003.3
20260509214820 30 343 1.6 8.0 0.00 0.76 0.05 40 1004.8
20260509213318 30 7 1.6 6.4 0.00 0.76 0.05 39 1004.9
20260509212656 30 315 1.6 0.0 0.00 0.00 0.00 38 1003.6
20260509211816 30 224 1.6 9.7 0.00 0.76 0.05 36 1005.2
20260509210316 30 307 1.6 6.4 0.00 0.76 0.05 40 1005.2
20260509205656 30 49 0.0 0.0 0.00 0.00 0.00 40 1003.9
20260509204819 30 334 3.2 11.3 0.00 0.76 0.05 39 1005.3
20260509203319 30 296 1.6 9.7 0.00 0.76 0.05 38 1005.4
20260509202656 30 180 0.0 0.0 0.00 0.00 0.00 37 1004.1
20260509201819 30 23 3.2 6.4 0.00 0.76 0.05 40 1005.8
20260509200322 30 213 1.6 8.0 0.00 0.76 0.05 39 1006.0
20260509195656 30 328 1.6 0.0 0.00 0.00 0.00 38 1004.6
20260509194822 30 230 1.6 3.2 0.00 0.76 0.05 37 1006.1
20260509193320 30 210 3.2 9.7 0.00 0.76 0.05 39 1006.2
20260509192655 29 225 4.8 0.0 0.00 0.00 0.00 37 1004.9
20260509191823 30 189 1.6 6.4 0.00 0.76 0.05 37 1006.4
20260509190320 29 321 1.6 4.8 0.00 0.76 0.05 37 1006.6
20260509185655 29 59 0.0 0.0 0.00 0.00 0.00 40 1005.2
20260509184818 29 325 3.2 6.4 0.00 0.76 0.05 41 1006.8
20260509183320 29 312 1.6 6.4 0.00 0.76 0.05 42 1006.8
20260509182656 29 324 0.0 0.0 0.00 0.00 0.00 37 1005.6
20260509181820 29 327 1.6 4.8 0.00 0.76 0.05 38 1007.2
20260509180340 28 310 3.2 9.7 0.00 0.76 0.05 39 1007.3
20260509175656 28 35 0.0 0.0 0.00 0.00 0.00 49 1006.0
20260509174817 28 58 0.0 4.8 0.00 0.76 0.05 46 1007.5
20260509173322 27 311 0.0 4.8 0.00 0.76 0.05 47 1007.7
20260509172657 27 71 0.0 0.0 0.00 0.00 0.00 51 1006.4
20260509171821 27 196 3.2 8.0 0.00 0.76 0.05 46 1007.7
20260509171156 27 322 0.0 0.0 0.00 0.00 0.00 49 1006.5
20260509170320 26 220 1.6 4.8 0.00 0.76 0.05 49 1007.9
20260509165655 26 253 1.6 0.0 0.00 0.00 0.00 47 1006.6
20260509164821 26 213 1.6 8.0 0.00 0.76 0.05 51 1008.0
20260509163322 26 286 1.6 4.8 0.00 0.76 0.05 58 1008.1
20260509162656 26 353 0.0 0.0 0.00 0.00 0.00 59 1006.9
20260509161835 25 327 0.0 8.0 0.00 0.76 0.05 63 1008.1
20260509160312 24 244 1.6 8.0 0.00 0.76 0.05 62 1008.1
20260509155656 24 329 4.8 0.0 0.00 0.00 0.00 66 1006.7
20260509154831 23 296 1.6 8.0 0.00 0.76 0.05 67 1008.0
20260509153324 23 330 1.6 6.4 0.00 0.76 0.05 69 1008.0
20260509152657 23 315 0.0 0.0 0.00 0.00 0.00 75 1006.7
20260509151823 22 329 1.6 6.4 0.00 0.76 0.05 78 1008.1
20260509151156 22 284 1.6 0.0 0.00 0.00 0.00 80 1006.6
20260509150321 21 310 0.0 6.4 0.03 0.76 0.05 86 1008.0
20260509145655 21 237 1.6 0.0 0.00 0.00 0.00 93 1006.6
20260509144821 20 236 0.0 4.8 0.03 0.76 0.05 97 1008.0
20260509144157 19 218 0.0 0.0 0.00 0.00 0.00 97 1006.6
20260509143340 20 329 0.0 4.8 0.03 0.76 0.05 98 1007.9
20260509142656 19 315 0.0 0.0 0.00 0.00 0.00 98 1006.7
20260509141818 19 317 0.0 1.6 0.03 0.76 0.05 98 1007.9
20260509141155 19 314 0.0 0.0 0.00 0.00 0.00 98 1006.7
20260509140341 19 315 0.0 0.0 0.00 0.74 0.03 98 1007.9
20260509135656 18 314 0.0 0.0 0.00 0.00 0.00 99 1006.5
20260509134839 18 313 0.0 0.0 0.00 0.74 0.03 99 1007.6
20260509134156 17 313 0.0 0.0 0.00 0.00 0.00 99 1006.3
20260509133318 17 314 0.0 0.0 0.00 0.74 0.03 99 1007.5
20260509132657 17 314 0.0 0.0 0.00 0.00 0.00 99 1006.3
20260509131818 16 315 0.0 0.0 0.03 0.74 0.03 99 1007.5
20260509130317 15 315 0.0 0.0 0.03 0.74 0.03 99 1007.3
20260509125655 14 315 0.0 0.0 0.00 0.00 0.00 99 1005.9
20260509124837 13 315 0.0 0.0 0.03 0.74 0.03 99 1007.0
20260509124157 13 315 0.0 0.0 0.00 0.00 0.00 98 1005.9
20260509123315 12 315 0.0 0.0 0.03 0.74 0.03 98 1007.1
20260509122655 12 315 0.0 0.0 0.00 0.00 0.00 98 1005.9
20260509121818 12 314 0.0 0.0 0.00 0.71 0.00 98 1007.0
20260509120316 11 314 0.0 0.0 0.00 0.71 0.00 98 1006.9
20260509115656 11 314 0.0 0.0 0.00 0.00 0.00 98 1005.7
20260509114813 12 314 0.0 0.0 0.00 0.71 0.00 98 1006.6
20260509113314 12 314 0.0 0.0 0.00 0.71 0.00 98 1006.3
20260509112657 12 314 0.0 0.0 0.00 0.00 0.00 98 1004.9
20260509111813 12 314 0.0 0.0 0.00 0.71 0.00 98 1006.1
20260509110312 12 314 0.0 0.0 0.00 0.71 0.00 98 1006.1
20260509105655 12 314 0.0 0.0 0.00 0.00 0.00 98 1004.9
20260509104815 12 314 0.0 0.0 0.00 0.71 0.00 98 1006.0
20260509103316 12 314 0.0 0.0 0.00 0.71 0.00 98 1006.1
20260509102655 12 314 0.0 0.0 0.00 0.00 0.00 98 1005.0
20260509101816 12 314 0.0 0.0 0.00 0.71 0.00 98 1006.3
20260509100315 13 314 0.0 0.0 0.00 0.71 0.00 98 1006.7
20260509095656 13 314 0.0 0.0 0.00 0.00 0.00 98 1005.6
20260509094819 13 314 0.0 0.0 0.00 0.71 0.00 98 1006.8
20260509094156 13 314 0.0 0.0 0.00 0.00 0.00 98 1005.7
20260509093316 13 314 0.0 0.0 0.00 0.71 0.00 98 1006.6
20260509092657 13 314 0.0 0.0 0.00 0.00 0.00 98 1005.4
20260509091816 13 314 0.0 1.6 0.00 0.71 0.00 98 1006.6
20260509090320 13 314 0.0 0.0 0.00 0.71 0.00 98 1006.5
20260509085655 13 314 0.0 0.0 0.00 0.00 0.00 98 1005.4
20260509084819 13 314 0.0 0.0 0.00 0.71 0.00 98 1006.5
20260509083318 13 317 0.0 0.0 0.00 0.71 0.00 98 1006.4
20260509082656 13 318 0.0 0.0 0.00 0.00 0.00 98 1005.4
20260509081822 13 318 0.0 0.0 0.00 0.71 0.00 98 1006.6
20260509080322 13 318 0.0 0.0 0.00 0.71 0.00 98 1006.8
20260509075656 13 318 0.0 0.0 0.00 0.00 0.00 98 1005.6
20260509074821 13 318 0.0 0.0 0.00 0.71 0.00 98 1007.0
20260509073326 14 317 0.0 0.0 0.00 0.71 0.00 98 1007.0
20260509072656 14 317 0.0 0.0 0.00 0.00 0.00 98 1005.8
20260509071823 14 317 0.0 0.0 0.00 0.71 0.00 98 1007.0
20260509070316 15 317 0.0 0.0 0.00 0.71 0.00 98 1007.1
20260509065655 15 317 0.0 0.0 0.00 0.00 0.00 98 1005.9
20260509064855 15 317 0.0 0.0 0.00 0.71 0.00 98 1007.1
20260509063317 15 317 0.0 0.0 0.00 0.71 0.00 98 1007.3
20260509062656 15 317 0.0 0.0 0.00 0.00 0.00 98 1006.2
20260509061833 15 318 0.0 0.0 0.00 0.71 0.00 98 1007.4
20260509061156 15 318 0.0 0.0 0.00 0.00 0.00 98 1006.2
20260509060318 15 317 0.0 0.0 0.00 0.71 0.00 98 1007.4
20260509055656 15 317 0.0 0.0 0.00 0.00 0.00 98 1006.3
20260509054817 15 314 0.0 1.6 0.00 0.71 0.00 98 1007.6
20260509054156 15 238 0.0 0.0 0.00 0.00 0.00 98 1006.1
20260509053319 16 237 0.0 3.2 0.00 0.71 0.00 98 1007.3
20260509052657 16 220 0.0 0.0 0.00 0.00 0.00 98 1006.0
20260509051817 16 223 1.6 8.0 0.00 0.71 0.00 98 1007.2
20260509050316 16 220 3.2 8.0 0.00 0.71 0.00 98 1007.1
20260509045655 16 215 1.6 0.0 0.00 0.00 0.00 98 1005.8
20260509044820 16 211 0.0 1.6 0.00 0.71 0.71 98 1007.0
20260509043317 15 211 0.0 1.6 0.00 0.71 0.71 98 1007.1
20260509042655 15 211 0.0 0.0 0.00 0.00 0.00 98 1005.9
20260509041837 15 211 0.0 1.6 0.00 0.71 0.71 98 1007.0
20260509041156 15 308 0.0 0.0 0.00 0.00 0.00 97 1005.9
20260509040336 16 308 0.0 0.0 0.00 0.71 0.71 98 1007.1
20260509035655 16 308 0.0 0.0 0.00 0.00 0.00 98 1005.6
20260509034818 16 308 0.0 4.8 0.00 0.71 0.71 98 1006.8